Location: Newark
(49.2194°N, 20.0100°E)
Time: 07:41:11
(UTC+00:00)

ISS - Visible Passes

Search period start: 26 February 2021 00:00
Search period end: 08 March 2021 00:00
Orbit: 417 x 422 km, 51.6° (Epoch: 27 February)

Date Brightness Start Highest point End Pass type
(mag) Time Alt. Az. Time Alt. Az. Time Alt. Az.
26 Feb -2.2 03:04:46 33° ESE 03:04:46 33° ESE 03:07:09 10° ENE visible
26 Feb -3.6 04:37:44 13° W 04:40:42 67° NNW 04:44:04 10° ENE visible
27 Feb -0.4 02:19:14 12° E 02:19:14 12° E 02:19:32 10° E visible
27 Feb -3.8 03:52:11 41° W 03:53:13 81° NNW 03:56:37 10° ENE visible
28 Feb -2.8 03:06:35 48° E 03:06:35 48° E 03:09:08 10° ENE visible
28 Feb -3.4 04:39:33 11° W 04:42:43 54° N 04:46:02 10° ENE visible
01 Mar -0.6 02:20:57 15° ENE 02:20:57 15° ENE 02:21:38 10° ENE visible
01 Mar -3.5 03:53:54 32° WNW 03:55:11 58° N 03:58:31 10° ENE visible
02 Mar -3.1 03:08:13 53° NE 03:08:13 53° NE 03:11:01 10° ENE visible
02 Mar -3.4 04:41:21 10° WNW 04:44:41 58° N 04:48:01 10° E visible
03 Mar -0.9 02:22:31 18° ENE 02:22:31 18° ENE 02:23:30 10° ENE visible
03 Mar -3.3 03:55:29 26° WNW 03:57:08 54° N 04:00:27 10° E visible
04 Mar -3.2 03:09:46 53° NNE 03:09:46 53° NNE 03:12:53 10° ENE visible
05 Mar -1.1 02:24:04 21° ENE 02:24:04 21° ENE 02:25:19 10° ENE visible
05 Mar -3.6 03:57:01 22° WNW 03:59:02 67° NNE 04:02:23 10° E visible
06 Mar -3.5 03:11:19 58° N 03:11:27 58° N 03:14:48 10° E visible
07 Mar -1.4 02:25:39 24° ENE 02:25:39 24° ENE 02:27:10 10° E visible
07 Mar -3.8 03:58:37 20° WNW 04:00:48 76° SSW 04:04:09 10° ESE visible
